2019-032D (44313 NORAD) Tracking and Keplerian Element Data

This shows tracking and keplerian element data for the satellite.

Feedback or suggestion? Click here.




ElementValue
Catalog44313
Name2019-032D
Epoch Orbit449
Epoch Day186.10915437
Epoch Year2019
RAAN143.759
Inclination44.998
Eccentricity0.0013068
Argument of Perigee110.0992
Mean Anonmoly250.131
Mean Motion15.00489922
Decay Rate3.2E-07
L11 44313U 19032D 19186.10915437 .00000032 00000-0 20518-4 0 9990
L22 44313 44.9980 143.7590 0013068 110.0992 250.1310 15.00489922 4499

Live tracking and technical data element details for 2019-032D (NORAD 44313). 2019-032D can be tracked NOW for your location showing map with azimuth and elevation plus other details from your city location.

Track the satellite on the map from your city or location and see movement details for azimuth, elevation, latitude, longitude, range, height, and movement on the map or in text.







IsCatalogInMostPopularTable: catalog: 44313, numindb: 12
Update: records affected: 1



GetName: 44313 2019-032D

Hit Count: updated at: Tue, 16 Jul 2019 14:34:30 GMT